TISAT 1

Last updated on Thu Jul 03 2025 00:03:45 GMT+0000 (Coordinated Universal Time)

1 36799U 10035E 25183.21887946 .00007695 00000+0 39239-3 0 9992 2 36799 98.0570 98.6885 0004265 46.1238 314.0346 15.17055527814406
UTC large
Height (km)
Speed (km/s)
/
Latitude / Longitude
Inclination (degrees)
Orbital Period (minutes)
Azimuth
Elevation
Range (km)
Doppler Factor

Next 0 passes for location: London (51.5072 / 0.1276)

Sorry there are no passes over London.